Location: Degersen
(52.2871°N, 9.5716°E)
Time: 07:26:26
(UTC+00:00)

Meteor 2-10 Rocket - Pass Details

Date: 20 January 2026
Orbit: 733 x 881 km, 81.2° (Epoch: 18 February)

Event Time Altitude Azimuth Distance (km) Brightness Sun altitude
Exits shadow 05:03:47 - 208° (SSW) 2,960 6.3 -20.1°
Reaches altitude 10° 05:05:31 10° 212° (SSW) 2,302 5.7 -19.9°
Maximum altitude 05:10:35 53° 289° (WNW) 967 3.6 -19.1°
Drops below altitude 10° 05:15:54 10° 6° (N) 2,412 6.0 -18.3°
Sets 05:18:25 0° 11° (NNE) 3,373 6.9 -17.9°
